Погода в Востоке

Россия / Приморский край     46°26′50″N   135°49′32″E
темп.,
°C
ветер,
м/с
пор.,
м/с
влажн.,
%
обл.,
%
осадки,
мм/ч
давл.,
гПа
погр.,
м
8 мая, сб
сб801:00+9в1160100 0.0 99016
04:00+6юв226913 0.0 99024
07:00+8ююв147099 0.1 991517
10:00+11ю235944 0.2 9921134
13:00+13ссз125482 0.3 9941406
16:00+9ююз2380100 1.2 996590
19:00+8ююв249289 0.7 997225
22:00+6юв229499 0.7 99847
9 мая, вс
вс901:00+6вюв2492100 0.0 996104
04:00+6вюв2390100 0.0 99577
07:00+6вюв41284100 0.1 996977
10:00+6в51286100 0.1 9971009
13:00+6в41079100 0.0 997885
16:00+7в3774100 0.1 998802
19:00+5св1692100 1.9 1000633
22:00+4ссв1197100 3.0 100271
10 мая, пн
пн1001:00+4зсз0198100 0.2 100349
04:00+4зсз1198100 0.3 100472
07:00+4сз1399100 0.1 1005312
10:00+5сз2495100 0.1 1007658
13:00+4сз2494100 0.1 1009784
16:00+5сз2486100 0.3 1010848
19:00+5зсз1385100 0.1 1011270
22:00+4зсз1188100 0.1 101316
11 мая, вт
вт1101:00+2зюз119374 0.0 101410
04:00+1з119459 0.0 101510
07:00+3сз118868 0.0 101780
10:00+8ссз23595 0.0 1017926
13:00+12сз354189 0.0 10162127
16:00+12зсз554687 0.1 10161697
19:00+11сз245286 0.0 1016314
22:00+7юз117084 0.0 101811
12 мая, ср
ср1201:00+6юв117231 0.0 101922
04:00+2юв22872 0.0 101929
07:00+5ююв22775 0.0 1019130
10:00+13ю2449100 0.0 10161120
13:00+15ююз3538100 0.0 10141836
16:00+14ююз4647100 0.0 10131551
19:00+11юз1265100 0.0 101273
22:00+8ююв2585100 0.4 1014144